Location: Isola Pescaroli
(45.0500°N, 10.1667°E)
Time: 01:04:13
(UTC+00:00)

SL-4 R/B - Pass Details

Date: 19 June 2021
Orbit: 428 x 662 km, 51.6° (Epoch: 29 July)

Event Time Altitude Azimuth Distance (km) Brightness Sun altitude
Exits shadow 22:04:08 23° 229° (SW) 1,169 3.5 -19.3°
Maximum altitude 22:06:34 74° 147° (SSE) 542 1.7 -19.5°
Drops below altitude 10° 22:10:22 10° 63° (ENE) 1,684 4.6 -19.7°
Sets 22:12:28 0° 62° (ENE) 2,531 5.6 -19.8°
